Change the Weather History Date:

Saturday, January 4, 2014

  Actual Average (KTAD) Record (KTAD)
Temperature  
Mean Temperature 28 °F 32 °F  
Max Temperature 45 °F 46 °F 72 °F (1956)
Min Temperature 10 °F 17 °F -23 °F (1959)
Degree Days  
Heating Degree Days 36 33  
Month to date heating degree days 132  
Since 1 July heating degree days 2400  
Cooling Degree Days 0 0  
Month to date cooling degree days 0  
Year to date cooling degree days 0  
Moisture  
Dew Point 12 °F    
Average Humidity 60    
Maximum Humidity 88    
Minimum Humidity 33    
Precipitation  
Precipitation 0.03 in 0.01 in 0.18 in (1963)
Month to date precipitation 0.05  
Year to date precipitation 0.05  
Sea Level Pressure  
Sea Level Pressure 29.81 in    
Wind  
Wind Speed 11 mph (NNE)    
Max Wind Speed 24 mph    
Max Gust Speed 30 mph    
Visibility 8 miles    
Events Snow    
T = Trace of Precipitation, MM = Missing Value Source: NWS Daily Summary

Daily Weather History Graph

Daily Weather History Graph

Search for Another Location

Airport or City:

Trip Planner

Search our weather history database for the weather conditions in past years. The results will help you decide how hot, cold, wet, or windy it might be!

Date:

Astronomy

Jan. 04, 2014 Rise Set
Actual Time 7:10 AM MST 4:55 PM MST
Civil Twilight 6:42 AM MST 5:24 PM MST
Nautical Twilight 6:10 AM MST 5:56 PM MST
Astronomical Twilight 5:38 AM MST 6:27 PM MST
Moon 9:24 AM MST (1/4) 9:10 PM MST (1/4)
Length of Visible Light 10h 41m
Length of Day
9h 44m
Waxing Crescent, 16% of the Moon is Illuminated
Jan 4
Waxing Crescent
Jan 7
First Quarter
Jan 15
Full
Jan 23
Last Quarter
Jan 30
New

Hourly Weather History & Observations

Time (MST) Temp. Windchill Dew Point Humidity Pressure Visibility Wind Dir Wind Speed Gust Speed Precip Events Conditions
12:53 AM 25.0 °F 16.3 °F 8.1 °F 49% 29.73 in 10.0 mi NE 8.1 mph - N/A   Clear
1:53 AM 24.1 °F 17.0 °F 7.0 °F 48% 29.73 in 10.0 mi NE 5.8 mph - N/A   Clear
2:53 AM 21.9 °F 14.5 °F 7.0 °F 53% 29.74 in 10.0 mi NE 5.8 mph - N/A   Clear
3:53 AM 24.1 °F 18.2 °F 7.0 °F 48% 29.73 in 10.0 mi NNE 4.6 mph - N/A   Clear
4:53 AM 25.0 °F 17.1 °F 7.0 °F 46% 29.75 in 10.0 mi North 6.9 mph - N/A   Clear
5:53 AM 21.0 °F 14.6 °F 7.0 °F 55% 29.77 in 10.0 mi East 4.6 mph - N/A   Clear
6:53 AM 25.0 °F 17.1 °F 7.0 °F 46% 29.73 in 10.0 mi West 6.9 mph - N/A   Clear
7:36 AM 21.0 °F 9.3 °F 9.0 °F 60% 29.76 in 10.0 mi North 11.5 mph - N/A   Clear
7:53 AM 28.0 °F 20.0 °F 9.0 °F 45% 29.74 in 10.0 mi NNE 8.1 mph - N/A   Clear
8:53 AM 37.0 °F 30.4 °F 10.0 °F 33% 29.75 in 10.0 mi NE 9.2 mph - N/A   Clear
9:53 AM 39.9 °F 32.9 °F 16.0 °F 38% 29.76 in 10.0 mi ENE 11.5 mph - N/A   Clear
10:53 AM 39.9 °F 35.1 °F 19.0 °F 43% 29.74 in 10.0 mi ENE 6.9 mph - N/A   Clear
11:53 AM 43.0 °F - 19.9 °F 40% 29.66 in 10.0 mi North - - N/A   Clear
12:53 PM 45.0 °F 36.9 °F 23.0 °F 42% 29.64 in 10.0 mi South 20.7 mph 29.9 mph N/A   Mostly Cloudy
1:53 PM 44.1 °F 36.8 °F 21.9 °F 42% 29.64 in 10.0 mi SSE 16.1 mph - N/A   Mostly Cloudy
2:53 PM 34.0 °F 23.4 °F 19.9 °F 56% 29.73 in 10.0 mi NE 17.3 mph - N/A   Overcast
3:02 PM 32.0 °F 21.6 °F 19.0 °F 59% 29.69 in 10.0 mi NE 15.0 mph - N/A   Overcast
3:53 PM 28.0 °F 15.7 °F 17.1 °F 63% 29.78 in 10.0 mi NE 17.3 mph 24.2 mph N/A   Overcast
4:53 PM 26.1 °F 14.5 °F 18.0 °F 71% 29.84 in 10.0 mi NNE 13.8 mph - 0.00 in Snow Light Snow
5:26 PM 21.9 °F 5.5 °F 18.0 °F 85% 29.81 in 1.8 mi NE 24.2 mph - 0.00 in Snow Light Snow
5:37 PM 21.0 °F 6.6 °F 18.0 °F 88% 29.83 in 0.8 mi NE 17.3 mph 27.6 mph 0.00 in Snow Light Snow
5:53 PM 19.0 °F 1.6 °F 16.0 °F 88% 29.94 in 0.8 mi NE 24.2 mph - 0.01 in Snow Light Snow
6:29 PM 19.9 °F 5.7 °F 16.0 °F 85% 29.87 in 1.2 mi NNE 16.1 mph - 0.02 in Snow Light Snow
6:43 PM 19.0 °F 3.2 °F 12.9 °F 77% 29.87 in 2.5 mi North 19.6 mph - 0.02 in Snow Light Snow
6:51 PM 19.4 °F 5.5 °F 12.2 °F 74% 29.88 in 5.0 mi North 15.0 mph - 0.02 in Snow Light Snow
6:53 PM 19.0 °F 4.5 °F 12.0 °F 74% 29.99 in 5.0 mi NNE 16.1 mph - 0.02 in Snow Light Snow
7:01 PM 19.0 °F 3.6 °F 12.0 °F 74% 29.88 in 6.0 mi NNE 18.4 mph - 0.00 in Snow Light Snow
7:53 PM 18.0 °F 6.1 °F 9.0 °F 68% 30.01 in 10.0 mi NNE 10.4 mph - 0.00 in   Overcast
8:53 PM 16.0 °F 6.3 °F 7.0 °F 68% 30.00 in 10.0 mi NE 6.9 mph - N/A   Overcast
9:53 PM 14.0 °F 0.5 °F 6.1 °F 71% 30.02 in 10.0 mi North 11.5 mph - N/A   Clear
10:53 PM 12.9 °F 0.7 °F 5.0 °F 71% 30.03 in 10.0 mi NNE 9.2 mph - N/A   Clear
11:53 PM 10.9 °F -1.8 °F 3.9 °F 73% 30.03 in 10.0 mi North 9.2 mph - N/A   Clear